Regional Weather Roundup
Issued by NWS

Home | Current Version | Previous Version | Text Only | Print | Product List | Glossary Off
Versions: 1 2 3 4 5 6 7 8 9 10 11 12 13 14 15 16 17 18 19 20 21 22 23 24 25 26 27 28 29 30 31 32 33 34 35 36 37 38 39 40 41 42 43 44 45 46 47 48 49 50

000
ASUS45 KPSR 171010
RWRAZ

ARIZONA HOURLY REGIONAL WEATHER ROUNDUP
NATIONAL WEATHER SERVICE PHOENIX AZ
300 AM MST TUE JAN 17 2017

NOTE: FAIR INDICATES FEW OR NO CLOUDS BELOW 12,000 FEET WITH NO
SIGNIFICANT WEATHER AND/OR OBSTRUCTIONS TO VISIBILITY.

AZZ001>003-036-171100-
NORTHWEST ARIZONA

CITY           SKY/WX    TMP DP  RH WIND       PRES   REMARKS
KINGMAN        CLEAR     33  21  61 E8        30.09S WCI  26
$$

AZZ004>008-015-016-018-171100-
NORTH CENTRAL ARIZONA

CITY           SKY/WX    TMP DP  RH WIND       PRES   REMARKS
GRAND CANYON   CLEAR     21  20  96 CALM      30.10R
WILLIAMS       CLEAR     30  23  74 S5        30.08R WCI  25
PRESCOTT       CLOUDY    32  32 100 SW3       30.07S FOG
FLAGSTAFF      PTCLDY    27  22  81 SE3       30.07S
PAYSON         CLEAR     37  36  93 E5        30.09S WCI  34
PAGE           CLEAR     36  27  69 S3        30.11R
$$

AZZ009>014-017-171100-
NORTHEAST ARIZONA

CITY           SKY/WX    TMP DP  RH WIND       PRES   REMARKS
WINSLOW        CLOUDY    35  32  88 W6        30.08F WCI  30
SAINT JOHNS    CLOUDY    34  34 100 CALM      30.06F
SHOW LOW       CLOUDY    32  30  93 CALM      30.08S
$$

AZZ023-171100-
GREATER PHOENIX AREA

CITY           SKY/WX    TMP DP  RH WIND       PRES   REMARKS
PHOENIX        PTCLDY    47  43  86 SE5       30.02S
BUCKEYE        CLEAR     45  39  81 N7        30.04S
LUKE AFB       CLEAR     45  39  81 N6        30.02S
DEER VALLEY    CLEAR     48  42  80 N8        30.02F
SCOTTSDALE     CLEAR     45  41  86 CALM      30.03F
MESA-GATEWAY   CLEAR     41  41 100 SE6       30.03F
$$

AZZ027-028-171100-
SOUTHWEST MARICOPA COUNTY AND PINAL COUNTY

CITY           SKY/WX    TMP DP  RH WIND       PRES   REMARKS
CASA GRANDE    CLEAR     41  39  93 CALM      30.04S
$$

AZZ503-504-507>509-171100-
SOUTHEAST ARIZONA

CITY           SKY/WX    TMP DP  RH WIND       PRES   REMARKS
TUCSON         CLEAR     42  40  92 S3        30.04S
DAVIS-MONTHAN  CLEAR     41  41 100 SE6       30.03S
NOGALES        CLEAR     36  33  89 CALM      30.02R
SIERRA VISTA   CLEAR     37  34  92 SE5       30.04S WCI  33
DOUGLAS        CLEAR     32  31  96 N9        30.03S WCI  24
SAFFORD        CLEAR     35  34  96 CALM      30.04S
$$

AZZ020-021-025-026-031-171100-
SOUTHWEST ARIZONA

CITY           SKY/WX    TMP DP  RH WIND       PRES   REMARKS
YUMA           CLEAR     47  30  51 CALM      30.05F
$$

CAZ031-033-041-043-047-048-061-171100-
SOUTHERN CALIFORNIA

CITY           SKY/WX    TMP DP  RH WIND       PRES   REMARKS
DOWNTOWN L.A.  CLEAR     51  47  86 CALM      30.05S
L.A. AIRPORT   CLEAR     51  50  96 CALM      30.06S
SAN DIEGO      PTCLDY    52  47  83 CALM      30.07S
BURBANK        CLEAR     45  36  70 N3        30.05S
ONTARIO        CLEAR     49  35  58 S6        30.05F
RIVERSIDE      CLEAR     41  32  70 NE5       30.07S
PALM SPRINGS   CLEAR     53  26  35 W7        30.09F
EL CENTRO NAS  CLEAR     45  41  86 W8        30.08S
IMPERIAL       CLEAR     45  41  86 CALM      30.06S
BLYTHE         CLEAR     45  33  63 W7        30.07S
NEEDLES        CLEAR     51  24  34 N8        30.09R
$$

NVZ020-UTZ003-171100-
SOUTHERN NEVADA-UTAH

CITY           SKY/WX    TMP DP  RH WIND       PRES   REMARKS
LAS VEGAS      CLEAR     40  23  50 SW5       30.13R
SALT LAKE CITY PTCLDY    21  16  81 SE3       30.28S
$$

NMZ009-TXZ055-171100-
NEW MEXICO-WEST TEXAS

CITY           SKY/WX    TMP DP  RH WIND       PRES   REMARKS
ALBUQUERQUE    CLOUDY    40  35  83 E9        30.11S WCI  34
EL PASO        PTCLDY    41  37  86 N8        30.04F
$$


........................KEY........................
SKY/WX - SKY CONDITION/WEATHER
TMP    - TEMPERATURE IN FAHRENHEIT
DP     - DEW POINT IN FAHRENHEIT
RH     - RELATIVE HUMIDITY IN PERCENT
WIND   - DIRECTION AND SPEED IN MILES PER HOUR (MPH)
VRB    - VARIABLE WIND DIRECTION
PRES   - MEAN SEA LEVEL PRESSURE IN INCHES OF MERCURY
         F - FALLING PRESSURE   R - RISING PRESSURE
         S - STEADY PRESSURE
VSB    - VISIBILITY IN MILES
HX     - HEAT INDEX IN FAHRENHEIT
WCI    - WIND CHILL INDEX IN FAHRENHEIT
TC     - TEMPERATURE IN CELSIUS WHICH IS ALSO KNOWN AS
         TEMPERATURE IN CENTIGRADE
AFB    - AIR FORCE BASE
         LUKE AFB IS LUKE AIR FORCE BASE
         DAVIS-MONTHAN IS DAVIS-MONTHAN AIR FORCE BASE
NAS    - NAVAL AIR STATION
         EL CENTRO NAS IS EL CENTRO NAVAL AIR STATION
N/A    - NOT AVAILABLE




USA.gov is the U.S. government's official web portal to all federal, state and local government web resources and services.